Hill City, KS

11:40 AM CST on December 06, 2019 (GMT -0600)
Hill City Municipal

Weather History for KHLC - November, 2019

Change the Weather History Date:

Wednesday, November 13, 2019

  Actual Average Record
Temperature  
Mean Temperature 42 °F 42 °F  
Max Temperature 59 °F 55 °F 83 °F (1999)
Min Temperature 25 °F 29 °F -7 °F (1940)
Degree Days  
Heating Degree Days 23    
Moisture  
Dew Point 24 °F    
Average Humidity 57    
Maximum Humidity 88    
Minimum Humidity 31    
Precipitation  
Precipitation 0.00 in 0.03 in 0.00 in (2019)
Month to date precipitation T 0.50  
Year to date precipitation 27.57 21.78  
Sea Level Pressure  
Sea Level Pressure 30.02 in    
Wind  
Wind Speed 8 mph ()    
Max Wind Speed 24 mph    
Max Gust Speed 32 mph    
Visibility 10.0 miles    
Events      
T = Trace of Precipitation, MM = Missing Value Source: Averaged Metar Reports

Daily Weather History Graph

Daily Weather History Graph

Search for Another Location

Airport or City:

Astronomy

Nov. 13, 2019 Rise Set
Actual Time 7:20 AM CST 5:26 PM CST
Civil Twilight 6:52 AM CST 5:54 PM CST
Nautical Twilight 6:19 AM CST 6:26 PM CST
Astronomical Twilight 5:48 AM CST 6:58 PM CST
Moon 6:30 PM CST (11/13) 8:15 AM CST (11/13)
Length of Visible Light 11h 02m
Length of Day
10h 05m
Full, 99% of the Moon is Illuminated
Nov 13
Full
Nov 19
Last Quarter
Nov 26
New
Dec 4
First Quarter
Dec 11
Full

Hourly Weather History & Observations

Time (CST) Temp. Windchill Dew Point Humidity Pressure Visibility Wind Dir Wind Speed Gust Speed Precip Events Conditions
12:53 AM 30.9 °F 25.2 °F 10.9 °F 43% 29.94 in 10.0 mi SSW 5.8 mph - N/A   Clear
1:53 AM 30.0 °F 25.2 °F 12.0 °F 47% 29.92 in 10.0 mi SSW 4.6 mph - N/A   Clear
2:53 AM 30.0 °F 25.2 °F 12.9 °F 49% 29.89 in 10.0 mi SW 4.6 mph - N/A   Clear
3:53 AM 30.0 °F 25.2 °F 14.0 °F 51% 29.87 in 10.0 mi SSW 4.6 mph - N/A   Clear
4:53 AM 28.9 °F 22.8 °F 14.0 °F 54% 29.87 in 10.0 mi SW 5.8 mph - N/A   Clear
5:53 AM 30.0 °F 25.2 °F 15.1 °F 54% 29.85 in 10.0 mi WSW 4.6 mph - N/A   Clear
7:53 AM 26.1 °F 20.5 °F 15.1 °F 63% 29.90 in 10.0 mi WSW 4.6 mph - N/A   Clear
9:53 AM 45.0 °F 38.2 °F 23.0 °F 42% 29.94 in 10.0 mi North 15.0 mph - N/A   Clear
10:53 AM 48.0 °F - 23.0 °F 37% 29.97 in 10.0 mi North 18.4 mph - N/A   Clear
11:53 AM 54.0 °F - 24.1 °F 31% 29.98 in 10.0 mi NNE 20.7 mph 29.9 mph N/A   Clear
12:53 PM 57.9 °F - 34.0 °F 41% 29.97 in 10.0 mi North 24.2 mph 32.2 mph N/A   Clear
1:53 PM 59.0 °F - 36.0 °F 42% 29.99 in 10.0 mi North 16.1 mph 25.3 mph N/A   Clear
2:53 PM 57.0 °F - 36.0 °F 45% 30.00 in 10.0 mi North 17.3 mph 27.6 mph N/A   Partly Cloudy
4:53 PM 53.1 °F - 36.0 °F 52% 30.06 in 10.0 mi NNE 17.3 mph - N/A   Mostly Cloudy
5:53 PM 48.0 °F - 34.0 °F 58% 30.10 in 10.0 mi North 13.8 mph - N/A   Scattered Clouds
6:53 PM 42.1 °F 37.7 °F 32.0 °F 67% 30.15 in 10.0 mi NE 6.9 mph - N/A   Clear
7:53 PM 37.0 °F 31.6 °F 30.0 °F 76% 30.19 in 10.0 mi ENE 6.9 mph - N/A   Clear
8:53 PM 33.1 °F - 28.0 °F 82% 30.21 in 10.0 mi Calm Calm - N/A   Clear
9:53 PM 26.1 °F 20.5 °F 21.9 °F 84% 30.22 in 10.0 mi WNW 4.6 mph - N/A   Clear
10:53 PM 28.0 °F 21.7 °F 25.0 °F 88% 30.23 in 10.0 mi WNW 5.8 mph - N/A   Clear
11:53 PM 30.9 °F 22.8 °F 27.0 °F 85% 30.25 in 10.0 mi West 9.2 mph - N/A   Mostly Cloudy